{"data":{"norad_id":50172,"epoch":"2026-05-24T19:19:29.909856Z","epoch_age_seconds":91281,"freshness":"FRESH","line1":"1 50172U 21125S   26144.80520729 -.00000687  00000+0 -25086-4 0  9993","line2":"2 50172  53.2127 267.4263 0001272  78.4421 281.6714 15.08841698248121","mean_motion":15.08841698,"eccentricity":0.0001272,"inclination_deg":53.2127,"raan_deg":267.4263,"arg_perigee_deg":78.4421,"mean_anomaly_deg":281.6714,"bstar":-2.5086e-5,"rev_number":24812,"period_min":95.437447275533,"perigee_km":538.85824513697,"apogee_km":540.61815258756,"semimajor_km":6917.8751988623,"source":"CELESTRAK","updated_at":"2026-05-25T13:38:16.844198Z"}}